SL-16 DEB

Satellite information

Favourite Embed

Satellite Type and Status

DEBRISIN ORBIT

Key statistics

Satellite SL-16 DEB at a glance.

Uptime

13935

Days in orbit

Revolutions

≈ 13.7

Per day

Orbit

LEO

Low Earth Orbit

Inclination

71.0

Latest

Satellite identification and parameters

Extended collection of information and parameters for SL-16 DEB.

Object identification

Identified? True

Debris? True

Object name: SL-16 DEB

International designator: 1987-027D

Object number (NORAD): 18417

Object ID (CCSDS): 18417

Country: COMMONWEALTH OF INDEPENDENT STATES (CIS)

Current information (Y/N): Y

RCS size: SMALL

Orbital parameters

Period: 104.761 minutes

Inclination: 71.0002 deg

SMA: 7361.408 km

Apoapsis: 1130.623 km

Periapsis: 835.924 km

RAAN: 51.6629 deg

Eccentricy: 0.0200165

Argument of periapsis: 128.4546 deg

Mean anomaly: 298.1995 deg

Mean motion: 13.74552754 rev/day

Mean motion (dot): 0.00000106 rev/day2

B* drag term: 0.00013506 1/REarth

Two-line elements (TLE)

Creation date: May 12, 2025, 2:31 a.m.

Reference frame: TEME

Reference center: EARTH

Epoch: May 11, 2025, 7:41 p.m. UTC

TLE line 0: 0 SL-16 DEB

TLE line 1: 1 18417U 87027D 25131.82060343 .00000106 00000-0 13506-3 0 9998

TLE line 2: 2 18417 71.0002 51.6629 0200165 128.4546 298.1995 13.74552754912363

Live tracking on map

Real-time ground track for satellite SL-16 DEB.

In-orbit conjunctions

A list of the most updated potential collisions computed for object SL-16 DEB.

Target Orbit TCA Probability of collision Miss distance Type
CALSPHERE 4(A) LEO 2025-01-16 06:05:48 0.006381624 26.0 (m) PAYLOAD

Associated space launch

Dynamic simulator of the Tselina-2 ELINT satellite

SL-16 DEB was lifted into orbit during the mission ‘Zenit-2 | GVM Tselina-2’, on board a Zenit-2 space rocket.

The launch took place on March 18, 1987, 8:30 a.m. from 45/1.

For more information about the launch, click the button.

Launch to space Zenit-2 | GVM Tselina-2
Zenit-2 | GVM Tselina-2

Agency: N/A

Status: Launch Successful

Launch date: March 18, 1987, 8:30 a.m. UTC

Rocket: Zenit-2

Launch pad: 45/1

Location: Baikonur Cosmodrome, Republic of Kazakhstan

...

Latest news about this satellite

There are no fresh news available about this satellite. Check back as we update our databases every day.


Newsletter sign-up

Weekly statistics, charts and insights to help you stay on top of the space industry.